"Sample Date","Sample Time","Sample Value","Units","Flow Rate","Number Channels","Micron Size 0","Counts/Channel 0","Micron Size 1","Counts/Channel 1","Micron Size 2","Counts/Channel 2","Micron Size 3","Counts/Channel 3","Micron Size 4","Counts/Channel 4","Micron Size 5","Counts/Channel 5","Micron Size 6","Counts/Channel 6","Micron Size 7","Counts/Channel 7","Micron Size 8","Counts/Channel 8","Micron Size 9","Counts/Channel 9","Micron Size 10","Counts/Channel 10","Micron Size 11","Counts/Channel 11","Micron Size 12","Counts/Channel 12","Micron Size 13","Counts/Channel 13","Micron Size 14","Counts/Channel 14","Micron Size 15","Counts/Channel 15","Micron Size 16","Counts/Channel 16","Micron Size 17","Counts/Channel 17","Micron Size 18","Counts/Channel 18","Micron Size 19","Counts/Channel 19","Micron Size 20","Counts/Channel 20","Micron Size 21","Counts/Channel 21","Micron Size 22","Counts/Channel 22","Micron Size 23","Counts/Channel 23","Micron Size 24","Counts/Channel 24","Micron Size 25","Counts/Channel 25","Micron Size 26","Counts/Channel 26","Micron Size 27","Counts/Channel 27","Micron Size 28","Counts/Channel 28","Micron Size 29","Counts/Channel 29","Micron Size 30","Counts/Channel 30","Micron Size 31","Counts/Channel 31"
"05/05/08","12:00:02",150.000,"cc",28321.375,6,0.100,119.000,0.200,31.000,0.300,0,0.500,0,1.000,0,5.000,0
"05/05/08","12:00:08",156.000,"cc",28298.363,6,0.100,129.000,0.200,21.000,0.300,5.000,0.500,1.000,1.000,0,5.000,0
"05/05/08","12:00:14",174.000,"cc",28393.289,6,0.100,140.000,0.200,32.000,0.300,1.000,0.500,1.000,1.000,0,5.000,0
"05/05/08","12:00:20",151.000,"cc",28298.012,6,0.100,124.000,0.200,26.000,0.300,1.000,0.500,0,1.000,0,5.000,0
"05/05/08","12:00:26",171.000,"cc",28285.111,6,0.100,136.000,0.200,32.000,0.300,3.000,0.500,0,1.000,0,5.000,0
"05/05/08","12:00:32",171.000,"cc",28309.594,6,0.100,138.000,0.200,31.000,0.300,2.000,0.500,0,1.000,0,5.000,0
"05/05/08","12:00:38",170.000,"cc",28320.824,6,0.100,127.000,0.200,38.000,0.300,5.000,0.500,0,1.000,0,5.000,0
"05/05/08","12:00:44",157.000,"cc",28335.391,6,0.100,127.000,0.200,28.000,0.300,0,0.500,2.000,1.000,0,5.000,0
"05/05/08","12:00:50",152.000,"cc",28367.865,6,0.100,127.000,0.200,25.000,0.300,0,0.500,0,1.000,0,5.000,0
"05/05/08","12:00:56",165.000,"cc",28343.565,6,0.100,130.000,0.200,30.000,0.300,4.000,0.500,1.000,1.000,0,5.000,0
"05/05/08","12:01:02",179.000,"cc",28265.648,6,0.100,144.000,0.200,35.000,0.300,0,0.500,0,1.000,0,5.000,0
"05/05/08","12:01:08",147.000,"cc",28256.453,6,0.100,117.000,0.200,29.000,0.300,1.000,0.500,0,1.000,0,5.000,0
"05/05/08","12:01:14",147.000,"cc",28302.828,6,0.100,120.000,0.200,25.000,0.300,2.000,0.500,0,1.000,0,5.000,0
"05/05/08","12:01:20",155.000,"cc",28364.121,6,0.100,124.000,0.200,30.000,0.300,1.000,0.500,0,1.000,0,5.000,0
"05/05/08","12:01:26",176.000,"cc",28294.576,6,0.100,139.000,0.200,35.000,0.300,2.000,0.500,0,1.000,0,5.000,0
"05/05/08","12:01:32",148.000,"cc",28300.619,6,0.100,126.000,0.200,22.000,0.300,0,0.500,0,1.000,0,5.000,0
"05/05/08","12:01:38",147.000,"cc",28338.736,6,0.100,115.000,0.200,29.000,0.300,3.000,0.500,0,1.000,0,5.000,0
"05/05/08","12:01:44",154.000,"cc",28271.070,6,0.100,131.000,0.200,22.000,0.300,1.000,0.500,0,1.000,0,5.000,0
"05/05/08","12:01:50",164.000,"cc",28358.922,6,0.100,134.000,0.200,30.000,0.300,0,0.500,0,1.000,0,5.000,0
"05/05/08","12:01:56",151.000,"cc",28258.178,6,0.100,131.000,0.200,18.000,0.300,2.000,0.500,0,1.000,0,5.000,0
"05/05/08","12:02:02",161.000,"cc",28355.125,6,0.100,134.000,0.200,26.000,0.300,1.000,0.500,0,1.000,0,5.000,0
"05/05/08","12:02:08",182.000,"cc",28351.561,6,0.100,145.000,0.200,33.000,0.300,3.000,0.500,1.000,1.000,0,5.000,0
"05/05/08","12:02:14",180.000,"cc",28351.715,6,0.100,146.000,0.200,33.000,0.300,1.000,0.500,0,1.000,0,5.000,0
"05/05/08","12:02:20",161.000,"cc",28267.383,6,0.100,141.000,0.200,19.000,0.300,1.000,0.500,0,1.000,0,5.000,0
"05/05/08","12:02:26",173.000,"cc",28302.584,6,0.100,145.000,0.200,27.000,0.300,0,0.500,1.000,1.000,0,5.000,0
"05/05/08","12:02:32",157.000,"cc",28346.246,6,0.100,130.000,0.200,26.000,0.300,1.000,0.500,0,1.000,0,5.000,0
"05/05/08","12:02:38",194.000,"cc",28375.408,6,0.100,154.000,0.200,36.000,0.300,4.000,0.500,0,1.000,0,5.000,0
"05/05/08","12:02:44",158.000,"cc",28296.998,6,0.100,139.000,0.200,18.000,0.300,1.000,0.500,0,1.000,0,5.000,0
"05/05/08","12:02:50",163.000,"cc",28310.184,6,0.100,122.000,0.200,37.000,0.300,4.000,0.500,0,1.000,0,5.000,0
"05/05/08","12:02:56",159.000,"cc",28325.522,6,0.100,130.000,0.200,29.000,0.300,0,0.500,0,1.000,0,5.000,0
"05/05/08","12:03:02",150.000,"cc",28330.504,6,0.100,121.000,0.200,26.000,0.300,3.000,0.500,0,1.000,0,5.000,0
"05/05/08","12:03:08",164.000,"cc",28291.920,6,0.100,130.000,0.200,34.000,0.300,0,0.500,0,1.000,0,5.000,0
"05/05/08","12:03:14",160.000,"cc",28304.834,6,0.100,132.000,0.200,27.000,0.300,1.000,0.500,0,1.000,0,5.000,0
"05/05/08","12:03:20",159.000,"cc",28260.512,6,0.100,132.000,0.200,25.000,0.300,2.000,0.500,0,1.000,0,5.000,0
"05/05/08","12:03:26",176.000,"cc",28304.320,6,0.100,146.000,0.200,28.000,0.300,2.000,0.500,0,1.000,0,5.000,0
"05/05/08","12:03:32",172.000,"cc",28293.826,6,0.100,137.000,0.200,34.000,0.300,1.000,0.500,0,1.000,0,5.000,0
"05/05/08","12:03:38",151.000,"cc",28340.777,6,0.100,114.000,0.200,36.000,0.300,1.000,0.500,0,1.000,0,5.000,0
"05/05/08","12:03:44",160.000,"cc",28313.291,6,0.100,126.000,0.200,33.000,0.300,1.000,0.500,0,1.000,0,5.000,0
"05/05/08","12:03:50",164.000,"cc",28313.594,6,0.100,137.000,0.200,26.000,0.300,1.000,0.500,0,1.000,0,5.000,0
"05/05/08","12:03:56",166.000,"cc",28341.293,6,0.100,135.000,0.200,30.000,0.300,0,0.500,1.000,1.000,0,5.000,0
"05/05/08","12:04:02",182.000,"cc",28289.799,6,0.100,150.000,0.200,29.000,0.300,3.000,0.500,0,1.000,0,5.000,0
"05/05/08","12:04:08",165.000,"cc",28340.688,6,0.100,134.000,0.200,29.000,0.300,2.000,0.500,0,1.000,0,5.000,0
"05/05/08","12:04:14",169.000,"cc",28362.242,6,0.100,136.000,0.200,32.000,0.300,1.000,0.500,0,1.000,0,5.000,0
"05/05/08","12:04:20",181.000,"cc",28283.168,6,0.100,154.000,0.200,26.000,0.300,1.000,0.500,0,1.000,0,5.000,0
"05/05/08","12:04:26",209.000,"cc",28275.717,6,0.100,174.000,0.200,33.000,0.300,1.000,0.500,1.000,1.000,0,5.000,0
"05/05/08","12:04:32",148.000,"cc",28359.529,6,0.100,119.000,0.200,26.000,0.300,2.000,0.500,1.000,1.000,0,5.000,0
"05/05/08","12:04:38",166.000,"cc",28315.547,6,0.100,134.000,0.200,32.000,0.300,0,0.500,0,1.000,0,5.000,0
"05/05/08","12:04:44",168.000,"cc",28292.387,6,0.100,135.000,0.200,31.000,0.300,2.000,0.500,0,1.000,0,5.000,0
"05/05/08","12:04:50",154.000,"cc",28315.740,6,0.100,121.000,0.200,30.000,0.300,3.000,0.500,0,1.000,0,5.000,0
"05/05/08","12:04:56",153.000,"cc",28379.229,6,0.100,125.000,0.200,26.000,0.300,2.000,0.500,0,1.000,0,5.000,0
"05/05/08","12:05:02",164.000,"cc",28262.109,6,0.100,140.000,0.200,22.000,0.300,2.000,0.500,0,1.000,0,5.000,0
"05/05/08","12:05:08",186.000,"cc",28304.844,6,0.100,146.000,0.200,36.000,0.300,3.000,0.500,1.000,1.000,0,5.000,0
"05/05/08","12:05:14",187.000,"cc",28375.551,6,0.100,152.000,0.200,33.000,0.300,2.000,0.500,0,1.000,0,5.000,0
"05/05/08","12:05:20",168.000,"cc",28306.508,6,0.100,144.000,0.200,23.000,0.300,1.000,0.500,0,1.000,0,5.000,0
"05/05/08","12:05:26",184.000,"cc",28242.602,6,0.100,148.000,0.200,33.000,0.300,3.000,0.500,0,1.000,0,5.000,0
"05/05/08","12:05:32",158.000,"cc",28332.520,6,0.100,123.000,0.200,30.000,0.300,5.000,0.500,0,1.000,0,5.000,0
"05/05/08","12:05:38",180.000,"cc",28326.490,6,0.100,138.000,0.200,41.000,0.300,1.000,0.500,0,1.000,0,5.000,0
"05/05/08","12:05:44",173.000,"cc",28339.229,6,0.100,143.000,0.200,26.000,0.300,4.000,0.500,0,1.000,0,5.000,0
"05/05/08","12:05:50",199.000,"cc",28351.908,6,0.100,158.000,0.200,39.000,0.300,2.000,0.500,0,1.000,0,5.000,0
"05/05/08","12:05:56",163.000,"cc",28272.582,6,0.100,143.000,0.200,18.000,0.300,2.000,0.500,0,1.000,0,5.000,0
"05/05/08","12:06:02",171.000,"cc",28261.287,6,0.100,146.000,0.200,24.000,0.300,1.000,0.500,0,1.000,0,5.000,0
"05/05/08","12:06:08",171.000,"cc",28338.934,6,0.100,141.000,0.200,28.000,0.300,2.000,0.500,0,1.000,0,5.000,0
"05/05/08","12:06:14",162.000,"cc",28376.656,6,0.100,135.000,0.200,27.000,0.300,0,0.500,0,1.000,0,5.000,0
"05/05/08","12:06:20",156.000,"cc",28315.076,6,0.100,124.000,0.200,32.000,0.300,0,0.500,0,1.000,0,5.000,0
"05/05/08","12:06:26",169.000,"cc",28316.842,6,0.100,141.000,0.200,24.000,0.300,4.000,0.500,0,1.000,0,5.000,0
"05/05/08","12:06:32",160.000,"cc",28287.070,6,0.100,128.000,0.200,32.000,0.300,0,0.500,0,1.000,0,5.000,0
"05/05/08","12:06:38",172.000,"cc",28282.889,6,0.100,143.000,0.200,24.000,0.300,5.000,0.500,0,1.000,0,5.000,0
"05/05/08","12:06:44",160.000,"cc",28342.184,6,0.100,135.000,0.200,23.000,0.300,2.000,0.500,0,1.000,0,5.000,0
"05/05/08","12:06:50",175.000,"cc",28329.512,6,0.100,141.000,0.200,32.000,0.300,2.000,0.500,0,1.000,0,5.000,0
"05/05/08","12:06:56",183.000,"cc",28322.924,6,0.100,154.000,0.200,26.000,0.300,3.000,0.500,0,1.000,0,5.000,0
"05/05/08","12:07:02",186.000,"cc",28292.623,6,0.100,153.000,0.200,28.000,0.300,5.000,0.500,0,1.000,0,5.000,0
"05/05/08","12:07:08",184.000,"cc",28345.482,6,0.100,149.000,0.200,34.000,0.300,1.000,0.500,0,1.000,0,5.000,0
"05/05/08","12:07:14",176.000,"cc",28323.764,6,0.100,151.000,0.200,22.000,0.300,3.000,0.500,0,1.000,0,5.000,0
"05/05/08","12:07:20",164.000,"cc",28260.475,6,0.100,131.000,0.200,30.000,0.300,2.000,0.500,1.000,1.000,0,5.000,0
"05/05/08","12:07:26",169.000,"cc",28341.523,6,0.100,143.000,0.200,24.000,0.300,2.000,0.500,0,1.000,0,5.000,0
"05/05/08","12:07:32",163.000,"cc",28328.766,6,0.100,131.000,0.200,29.000,0.300,2.000,0.500,1.000,1.000,0,5.000,0
"05/05/08","12:07:38",158.000,"cc",28317.201,6,0.100,121.000,0.200,35.000,0.300,2.000,0.500,0,1.000,0,5.000,0
"05/05/08","12:07:44",153.000,"cc",28367.662,6,0.100,130.000,0.200,20.000,0.300,3.000,0.500,0,1.000,0,5.000,0
"05/05/08","12:07:50",148.000,"cc",28310.037,6,0.100,124.000,0.200,23.000,0.300,1.000,0.500,0,1.000,0,5.000,0
"05/05/08","12:07:56",185.000,"cc",28296.117,6,0.100,157.000,0.200,26.000,0.300,2.000,0.500,0,1.000,0,5.000,0
"05/05/08","12:08:02",126.000,"cc",28293.871,6,0.100,105.000,0.200,19.000,0.300,2.000,0.500,0,1.000,0,5.000,0
"05/05/08","12:08:08",172.000,"cc",28343.022,6,0.100,143.000,0.200,25.000,0.300,4.000,0.500,0,1.000,0,5.000,0
"05/05/08","12:08:14",152.000,"cc",28290.406,6,0.100,117.000,0.200,31.000,0.300,3.000,0.500,1.000,1.000,0,5.000,0
"05/05/08","12:08:20",190.000,"cc",28233.617,6,0.100,150.000,0.200,40.000,0.300,0,0.500,0,1.000,0,5.000,0
"05/05/08","12:08:26",156.000,"cc",28331.539,6,0.100,131.000,0.200,24.000,0.300,1.000,0.500,0,1.000,0,5.000,0
"05/05/08","12:08:32",171.000,"cc",28405.703,6,0.100,142.000,0.200,29.000,0.300,0,0.500,0,1.000,0,5.000,0
"05/05/08","12:08:38",157.000,"cc",28288.805,6,0.100,126.000,0.200,30.000,0.300,1.000,0.500,0,1.000,0,5.000,0
"05/05/08","12:08:44",136.000,"cc",28311.846,6,0.100,113.000,0.200,22.000,0.300,1.000,0.500,0,1.000,0,5.000,0
"05/05/08","12:08:50",153.000,"cc",28314.277,6,0.100,127.000,0.200,26.000,0.300,0,0.500,0,1.000,0,5.000,0
"05/05/08","12:08:56",170.000,"cc",28293.940,6,0.100,143.000,0.200,26.000,0.300,1.000,0.500,0,1.000,0,5.000,0
"05/05/08","12:09:02",164.000,"cc",28301.631,6,0.100,140.000,0.200,24.000,0.300,0,0.500,0,1.000,0,5.000,0
"05/05/08","12:09:08",155.000,"cc",28295.531,6,0.100,131.000,0.200,23.000,0.300,1.000,0.500,0,1.000,0,5.000,0
"05/05/08","12:09:14",171.000,"cc",28335.721,6,0.100,133.000,0.200,33.000,0.300,5.000,0.500,0,1.000,0,5.000,0
"05/05/08","12:09:20",201.000,"cc",28378.662,6,0.100,163.000,0.200,36.000,0.300,2.000,0.500,0,1.000,0,5.000,0
"05/05/08","12:09:26",164.000,"cc",28346.336,6,0.100,132.000,0.200,31.000,0.300,1.000,0.500,0,1.000,0,5.000,0
"05/05/08","12:09:32",187.000,"cc",28277.432,6,0.100,154.000,0.200,31.000,0.300,1.000,0.500,1.000,1.000,0,5.000,0
"05/05/08","12:09:38",165.000,"cc",28301.170,6,0.100,137.000,0.200,27.000,0.300,1.000,0.500,0,1.000,0,5.000,0
"05/05/08","12:09:44",188.000,"cc",28245.592,6,0.100,148.000,0.200,37.000,0.300,3.000,0.500,0,1.000,0,5.000,0
"05/05/08","12:09:50",195.000,"cc",28299.596,6,0.100,183.000,0.200,10.000,0.300,2.000,0.500,0,1.000,0,5.000,0
"05/05/08","12:09:56",201.000,"cc",28377.022,6,0.100,167.000,0.200,31.000,0.300,3.000,0.500,0,1.000,0,5.000,0
"05/05/08","12:10:02",167.000,"cc",28399.916,6,0.100,137.000,0.200,27.000,0.300,3.000,0.500,0,1.000,0,5.000,0
"05/05/08","12:10:08",157.000,"cc",28261.656,6,0.100,131.000,0.200,24.000,0.300,2.000,0.500,0,1.000,0,5.000,0
"05/05/08","12:10:14",152.000,"cc",28252.352,6,0.100,119.000,0.200,31.000,0.300,2.000,0.500,0,1.000,0,5.000,0
"05/05/08","12:10:20",128.000,"cc",28281.775,6,0.100,96.000,0.200,31.000,0.300,0,0.500,1.000,1.000,0,5.000,0
"05/05/08","12:10:26",156.000,"cc",28284.479,6,0.100,125.000,0.200,30.000,0.300,1.000,0.500,0,1.000,0,5.000,0
"05/05/08","12:10:32",151.000,"cc",28360.182,6,0.100,128.000,0.200,22.000,0.300,1.000,0.500,0,1.000,0,5.000,0
"05/05/08","12:10:38",165.000,"cc",28315.467,6,0.100,133.000,0.200,32.000,0.300,0,0.500,0,1.000,0,5.000,0
"05/05/08","12:10:44",177.000,"cc",28344.178,6,0.100,152.000,0.200,21.000,0.300,3.000,0.500,1.000,1.000,0,5.000,0
"05/05/08","12:10:50",158.000,"cc",28374.414,6,0.100,121.000,0.200,35.000,0.300,2.000,0.500,0,1.000,0,5.000,0
"05/05/08","12:10:56",159.000,"cc",28323.998,6,0.100,130.000,0.200,27.000,0.300,2.000,0.500,0,1.000,0,5.000,0
"05/05/08","12:11:02",190.000,"cc",28295.922,6,0.100,157.000,0.200,33.000,0.300,0,0.500,0,1.000,0,5.000,0
"05/05/08","12:11:08",166.000,"cc",28327.633,6,0.100,138.000,0.200,26.000,0.300,2.000,0.500,0,1.000,0,5.000,0
"05/05/08","12:11:14",168.000,"cc",28286.070,6,0.100,128.000,0.200,37.000,0.300,2.000,0.500,1.000,1.000,0,5.000,0
"05/05/08","12:11:20",176.000,"cc",28331.338,6,0.100,140.000,0.200,34.000,0.300,2.000,0.500,0,1.000,0,5.000,0
"05/05/08","12:11:26",173.000,"cc",28314.082,6,0.100,147.000,0.200,25.000,0.300,0,0.500,1.000,1.000,0,5.000,0
"05/05/08","12:11:32",160.000,"cc",28384.725,6,0.100,130.000,0.200,29.000,0.300,1.000,0.500,0,1.000,0,5.000,0
"05/05/08","12:11:38",156.000,"cc",28318.773,6,0.100,134.000,0.200,21.000,0.300,1.000,0.500,0,1.000,0,5.000,0
"05/05/08","12:11:44",162.000,"cc",28269.281,6,0.100,136.000,0.200,24.000,0.300,2.000,0.500,0,1.000,0,5.000,0
"05/05/08","12:11:50",185.000,"cc",28295.678,6,0.100,151.000,0.200,33.000,0.300,1.000,0.500,0,1.000,0,5.000,0
"05/05/08","12:11:56",157.000,"cc",28324.070,6,0.100,127.000,0.200,28.000,0.300,2.000,0.500,0,1.000,0,5.000,0
"05/05/08","12:12:02",156.000,"cc",28355.523,6,0.100,119.000,0.200,34.000,0.300,2.000,0.500,1.000,1.000,0,5.000,0
"05/05/08","12:12:08",145.000,"cc",28281.773,6,0.100,117.000,0.200,27.000,0.300,1.000,0.500,0,1.000,0,5.000,0
"05/05/08","12:12:14",179.000,"cc",28270.094,6,0.100,149.000,0.200,28.000,0.300,1.000,0.500,1.000,1.000,0,5.000,0
"05/05/08","12:12:20",146.000,"cc",28246.820,6,0.100,116.000,0.200,29.000,0.300,1.000,0.500,0,1.000,0,5.000,0
"05/05/08","12:12:26",173.000,"cc",28411.879,6,0.100,129.000,0.200,41.000,0.300,3.000,0.500,0,1.000,0,5.000,0
"05/05/08","12:12:32",150.000,"cc",28310.867,6,0.100,119.000,0.200,27.000,0.300,2.000,0.500,2.000,1.000,0,5.000,0
"05/05/08","12:12:38",219.000,"cc",28333.309,6,0.100,157.000,0.200,30.000,0.300,9.000,0.500,4.000,1.000,19.000,5.000,0
"05/05/08","12:12:44",1077.000,"cc",28343.160,6,0.100,438.000,0.200,162.000,0.300,107.000,0.500,115.000,1.000,250.000,5.000,5.000
"05/05/08","12:12:50",5664.000,"cc",28246.336,6,0.100,1738.000,0.200,749.000,0.300,555.000,0.500,774.000,1.000,1829.000,5.000,19.000
"05/05/08","12:12:56",5058.000,"cc",28251.707,6,0.100,1551.000,0.200,643.000,0.300,485.000,0.500,648.000,1.000,1708.000,5.000,23.000
"05/05/08","12:13:02",5865.000,"cc",28357.578,6,0.100,1778.000,0.200,696.000,0.300,541.000,0.500,804.000,1.000,2014.000,5.000,32.000
"05/05/08","12:13:08",6216.000,"cc",28265.289,6,0.100,1815.000,0.200,808.000,0.300,660.000,0.500,857.000,1.000,2043.000,5.000,33.000
"05/05/08","12:13:14",4866.000,"cc",28233.779,6,0.100,1389.000,0.200,519.000,0.300,467.000,0.500,686.000,1.000,1785.000,5.000,20.000
"05/05/08","12:13:20",6199.000,"cc",28215.299,6,0.100,1763.000,0.200,758.000,0.300,640.000,0.500,936.000,1.000,2072.000,5.000,30.000
"05/05/08","12:13:26",6485.000,"cc",28268.549,6,0.100,1856.000,0.200,766.000,0.300,701.000,0.500,973.000,1.000,2169.000,5.000,20.000
"05/05/08","12:13:32",5322.000,"cc",28311.504,6,0.100,1505.000,0.200,554.000,0.300,542.000,0.500,723.000,1.000,1975.000,5.000,23.000
"05/05/08","12:13:38",4761.000,"cc",28337.916,6,0.100,1351.000,0.200,537.000,0.300,512.000,0.500,748.000,1.000,1598.000,5.000,15.000
"05/05/08","12:13:44",5680.000,"cc",28278.934,6,0.100,1567.000,0.200,645.000,0.300,597.000,0.500,866.000,1.000,1974.000,5.000,31.000
"05/05/08","12:13:50",6134.000,"cc",28379.984,6,0.100,1606.000,0.200,680.000,0.300,635.000,0.500,921.000,1.000,2269.000,5.000,23.000
"05/05/08","12:13:56",3623.000,"cc",28287.129,6,0.100,1154.000,0.200,427.000,0.300,335.000,0.500,520.000,1.000,1179.000,5.000,8.000
"05/05/08","12:14:02",4210.000,"cc",28358.582,6,0.100,1265.000,0.200,499.000,0.300,445.000,0.500,598.000,1.000,1388.000,5.000,15.000
"05/05/08","12:14:08",5240.000,"cc",28329.027,6,0.100,1432.000,0.200,571.000,0.300,528.000,0.500,806.000,1.000,1881.000,5.000,22.000
"05/05/08","12:14:14",5084.000,"cc",28331.830,6,0.100,1349.000,0.200,608.000,0.300,527.000,0.500,745.000,1.000,1843.000,5.000,12.000
"05/05/08","12:14:20",2825.000,"cc",28350.658,6,0.100,882.000,0.200,324.000,0.300,257.000,0.500,408.000,1.000,941.000,5.000,13.000
"05/05/08","12:14:26",4135.000,"cc",28305.096,6,0.100,1206.000,0.200,458.000,0.300,397.000,0.500,607.000,1.000,1444.000,5.000,23.000
"05/05/08","12:14:32",2865.000,"cc",28322.832,6,0.100,898.000,0.200,382.000,0.300,285.000,0.500,398.000,1.000,896.000,5.000,6.000
"05/05/08","12:14:38",2216.000,"cc",28311.758,6,0.100,746.000,0.200,267.000,0.300,211.000,0.500,310.000,1.000,679.000,5.000,3.000
"05/05/08","12:14:44",574.000,"cc",28332.967,6,0.100,272.000,0.200,72.000,0.300,45.000,0.500,58.000,1.000,126.000,5.000,1.000
"05/05/08","12:14:50",197.000,"cc",28271.266,6,0.100,154.000,0.200,32.000,0.300,6.000,0.500,0,1.000,4.000,5.000,1.000
"05/05/08","12:14:56",1206.000,"cc",28246.940,6,0.100,383.000,0.200,135.000,0.300,98.000,0.500,172.000,1.000,414.000,5.000,4.000
"05/05/08","12:15:02",4448.000,"cc",28351.455,6,0.100,1286.000,0.200,584.000,0.300,430.000,0.500,649.000,1.000,1482.000,5.000,17.000
"05/05/08","12:15:08",1551.000,"cc",28394.500,6,0.100,536.000,0.200,219.000,0.300,108.000,0.500,209.000,1.000,472.000,5.000,7.000
"05/05/08","12:15:14",3382.000,"cc",27957.229,6,0.100,2569.000,0.200,338.000,0.300,122.000,0.500,123.000,1.000,224.000,5.000,6.000
"05/05/08","12:15:20",1363.000,"cc",27758.953,6,0.100,592.000,0.200,165.000,0.300,97.000,0.500,155.000,1.000,354.000,5.000,0
"05/05/08","12:15:26",1359.000,"cc",27188.334,6,0.100,444.000,0.200,172.000,0.300,146.000,0.500,180.000,1.000,409.000,5.000,8.000
"05/05/08","12:15:32",552.000,"cc",27566.457,6,0.100,255.000,0.200,78.000,0.300,36.000,0.500,52.000,1.000,129.000,5.000,2.000
"05/05/08","12:15:38",272.000,"cc",27888.162,6,0.100,171.000,0.200,47.000,0.300,9.000,0.500,17.000,1.000,27.000,5.000,1.000
"05/05/08","12:15:44",284.000,"cc",28447.537,6,0.100,167.000,0.200,37.000,0.300,11.000,0.500,23.000,1.000,46.000,5.000,0
"05/05/08","12:15:50",216.000,"cc",28806.949,6,0.100,161.000,0.200,44.000,0.300,2.000,0.500,3.000,1.000,6.000,5.000,0
"05/05/08","12:15:56",280.000,"cc",28854.186,6,0.100,181.000,0.200,49.000,0.300,11.000,0.500,14.000,1.000,24.000,5.000,1.000
"05/05/08","12:16:02",431.000,"cc",28750.303,6,0.100,225.000,0.200,63.000,0.300,21.000,0.500,35.000,1.000,87.000,5.000,0
"05/05/08","12:16:08",2015.000,"cc",28827.127,6,0.100,1631.000,0.200,118.000,0.300,69.000,0.500,63.000,1.000,121.000,5.000,13.000
"05/05/08","12:16:14",8717.000,"cc",26994.563,6,0.100,6400.000,0.200,1298.000,0.300,464.000,0.500,364.000,1.000,119.000,5.000,72.000
"05/05/08","12:16:20",2122.000,"cc",26344.164,6,0.100,1340.000,0.200,477.000,0.300,158.000,0.500,121.000,1.000,26.000,5.000,0
"05/05/08","12:16:26",4034.000,"cc",26878.522,6,0.100,3004.000,0.200,552.000,0.300,336.000,0.500,85.000,1.000,27.000,5.000,30.000
"05/05/08","12:16:32",590.000,"cc",26370.506,6,0.100,375.000,0.200,122.000,0.300,44.000,0.500,25.000,1.000,23.000,5.000,1.000
"05/05/08","12:16:38",275.000,"cc",27038.951,6,0.100,194.000,0.200,43.000,0.300,15.000,0.500,9.000,1.000,14.000,5.000,0
"05/05/08","12:16:44",223.000,"cc",27240.682,6,0.100,160.000,0.200,35.000,0.300,10.000,0.500,9.000,1.000,9.000,5.000,0
"05/05/08","12:16:50",198.000,"cc",27239.311,6,0.100,160.000,0.200,31.000,0.300,3.000,0.500,2.000,1.000,2.000,5.000,0
"05/05/08","12:16:56",168.000,"cc",27238.988,6,0.100,131.000,0.200,34.000,0.300,1.000,0.500,1.000,1.000,1.000,5.000,0
"05/05/08","12:17:02",208.000,"cc",27309.080,6,0.100,168.000,0.200,37.000,0.300,3.000,0.500,0,1.000,0,5.000,0
"05/05/08","12:17:08",204.000,"cc",27261.598,6,0.100,168.000,0.200,33.000,0.300,1.000,0.500,0,1.000,2.000,5.000,0
"05/05/08","12:17:14",174.000,"cc",27386.883,6,0.100,151.000,0.200,22.000,0.300,1.000,0.500,0,1.000,0,5.000,0
"05/05/08","12:17:20",171.000,"cc",27460.404,6,0.100,143.000,0.200,27.000,0.300,1.000,0.500,0,1.000,0,5.000,0
"05/05/08","12:17:26",199.000,"cc",27545.701,6,0.100,150.000,0.200,37.000,0.300,6.000,0.500,2.000,1.000,1.000,5.000,3.000
"05/05/08","12:17:32",175.000,"cc",27696.559,6,0.100,134.000,0.200,40.000,0.300,1.000,0.500,0,1.000,0,5.000,0
"05/05/08","12:17:38",185.000,"cc",27982.811,6,0.100,155.000,0.200,27.000,0.300,3.000,0.500,0,1.000,0,5.000,0
"05/05/08","12:17:44",190.000,"cc",28289.682,6,0.100,154.000,0.200,34.000,0.300,2.000,0.500,0,1.000,0,5.000,0
"05/05/08","12:17:50",186.000,"cc",28573.904,6,0.100,148.000,0.200,38.000,0.300,0,0.500,0,1.000,0,5.000,0
"05/05/08","12:17:56",165.000,"cc",27868.979,6,0.100,134.000,0.200,30.000,0.300,1.000,0.500,0,1.000,0,5.000,0
"05/05/08","12:18:02",179.000,"cc",27816.664,6,0.100,151.000,0.200,28.000,0.300,0,0.500,0,1.000,0,5.000,0
"05/05/08","12:18:08",150.000,"cc",28137.213,6,0.100,127.000,0.200,22.000,0.300,1.000,0.500,0,1.000,0,5.000,0
"05/05/08","12:18:14",177.000,"cc",28620.830,6,0.100,139.000,0.200,35.000,0.300,1.000,0.500,2.000,1.000,0,5.000,0
"05/05/08","12:18:20",183.000,"cc",28858.914,6,0.100,139.000,0.200,40.000,0.300,4.000,0.500,0,1.000,0,5.000,0
"05/05/08","12:18:26",157.000,"cc",28943.086,6,0.100,125.000,0.200,31.000,0.300,1.000,0.500,0,1.000,0,5.000,0
"05/05/08","12:18:32",170.000,"cc",28941.176,6,0.100,135.000,0.200,34.000,0.300,1.000,0.500,0,1.000,0,5.000,0
"05/05/08","12:18:38",173.000,"cc",28923.084,6,0.100,156.000,0.200,17.000,0.300,0,0.500,0,1.000,0,5.000,0
"05/05/08","12:18:44",164.000,"cc",28902.859,6,0.100,135.000,0.200,28.000,0.300,1.000,0.500,0,1.000,0,5.000,0
"05/05/08","12:18:50",184.000,"cc",28936.127,6,0.100,152.000,0.200,27.000,0.300,2.000,0.500,0,1.000,3.000,5.000,0
"05/05/08","12:18:56",242.000,"cc",28993.262,6,0.100,157.000,0.200,37.000,0.300,11.000,0.500,6.000,1.000,30.000,5.000,1.000
"05/05/08","12:19:02",499.000,"cc",28918.963,6,0.100,233.000,0.200,82.000,0.300,38.000,0.500,34.000,1.000,109.000,5.000,3.000
"05/05/08","12:19:08",551.000,"cc",28832.625,6,0.100,244.000,0.200,72.000,0.300,47.000,0.500,55.000,1.000,133.000,5.000,0
"05/05/08","12:19:14",773.000,"cc",28945.203,6,0.100,322.000,0.200,118.000,0.300,79.000,0.500,84.000,1.000,169.000,5.000,1.000
"05/05/08","12:19:20",605.000,"cc",28773.486,6,0.100,281.000,0.200,108.000,0.300,48.000,0.500,47.000,1.000,120.000,5.000,1.000
"05/05/08","12:19:26",1640.000,"cc",28823.863,6,0.100,619.000,0.200,227.000,0.300,178.000,0.500,175.000,1.000,436.000,5.000,5.000
"05/05/08","12:19:32",930.000,"cc",28850.537,6,0.100,363.000,0.200,138.000,0.300,92.000,0.500,97.000,1.000,240.000,5.000,0